Temperature
9 9 9 9 9 9 9 10 10 10 10 10 10 10 10 10 10 10 10 10 10 10 10 10 10 10 10 10 10 9 9 9 9 9 9 9 10 10 10 10 10 10 10
9 9 8 8 9 9 9 10 10 9 10 10 10 10 10 9 9 9 9 9 9 9 9 9 9 9 9 9 9 9 9 9 9 8 8 8 9 9 9 10 9 9 9
8 8 8 8 8 8 9 9 9 9 9 9 9 9 9 9 9 9 9 9 9 9 9 9 9 9 9 9 9 9 9 9 9 8 8 8 9 9 9 9 9 9 9
8 8 7 8 8 8 8 8 9 9 9 9 9 9 9 9 9 9 9 9 9 9 9 9 9 9 9 9 9 8 8 9 8 8 8 8 8 8 8 8 9 8 8
7 7 7 7 7 7 7 8 8 8 8 8 8 8 8 8 8 9 8 8 8 8 8 8 8 8 8 8 8 8 8 8 8 8 8 8 8 8 8 7 8 8 8
6 7 7 7 7 7 7 7 8 8 8 8 8 8 8 8 8 8 8 8 8 8 8 8 8 8 8 8 8 8 8 8 8 8 7 7 8 8 8 7 7 7 7
6 6 6 6 6 6 6 7 7 7 7 7 7 8 8 8 8 8 8 8 8 8 8 8 8 8 8 8 7 7 7 7 7 7 7 7 7 7 7 7 7 6 7
5 5 5 5 5 6 6 6 6 6 7 7 7 7 7 7 7 7 7 7 7 7 8 8 8 7 7 7 7 7 7 7 7 7 7 7 7 7 7 7 6 6 6
4 4 4 4 5 5 5 6 6 6 6 7 7 7 7 7 7 7 7 7 7 7 7 7 7 7 7 7 7 7 7 7 7 7 7 6 6 6 6 6 6 5 5
3 3 4 4 4 4 5 5 5 5 6 6 6 6 6 6 6 7 7 7 7 7 7 7 7 7 7 7 7 6 6 6 6 6 6 6 6 6 6 6 5 5 5
3 3 3 3 4 4 4 4 5 5 5 5 6 6 6 6 6 6 6 6 6 6 6 6 6 6 6 6 6 6 6 6 6 6 6 6 6 5 5 5 5 5 5
2 2 2 3 3 3 3 4 4 4 4 5 5 5 6 6 6 6 6 6 6 6 6 6 6 6 6 6 6 6 6 6 6 6 5 5 5 5 5 5 4 4 4
1 2 2 2 2 3 3 3 3 4 4 4 4 5 5 5 5 5 5 5 5 5 5 5 5 5 5 5 5 5 5 5 5 5 5 5 5 5 4 4 4 4 4
1 1 1 1 2 2 2 2 3 3 3 4 4 4 4 5 5 5 5 5 5 5 5 5 5 5 5 5 5 5 5 5 5 4 4 4 4 4 4 4 3 3 3
0 0 0 0 1 1 2 2 2 2 3 3 3 3 4 4 4 4 4 4 4 4 4 4 4 4 4 4 4 4 4 4 4 4 4 4 4 4 3 3 3 3 3
-0 -0 -0 0 0 1 1 1 1 2 2 2 2 3 3 3 3 3 3 4 4 4 4 4 4 4 4 4 4 4 3 3 3 3 3 3 3 3 3 3 3 3 3
-1 -1 -1 -1 -1 -0 0 0 1 1 1 2 2 2 2 2 3 3 3 3 3 3 3 3 3 3 4 4 4 3 3 3 3 3 3 3 3 3 2 2 2 2 2
-1 -1 -1 -1 -1 -1 -0 -0 -0 0 1 1 1 1 2 2 2 2 2 2 2 3 3 3 3 3 3 3 3 3 2 2 2 2 2 2 2 2 2 2 2 2 2
-2 -2 -2 -1 -1 -1 -1 -1 -1 -0 -0 -0 0 1 1 1 1 1 2 2 2 2 2 2 2 2 2 2 2 2 2 2 2 2 2 1 1 1 1 1 1 1 1
-2 -2 -2 -2 -2 -1 -1 -1 -1 -1 -1 -0 -0 -0 -0 0 1 1 1 1 1 1 1 2 2 2 2 2 2 1 1 1 1 1 1 1 1 1 1 1 1 1 1
-2 -2 -2 -2 -2 -2 -2 -2 -1 -1 -1 -1 -1 -1 -1 -0 -0 0 0 0 1 1 1 1 1 1 1 1 1 1 1 1 1 1 0 1 1 0 0 0 0 0 0
-2 -2 -2 -2 -2 -2 -2 -2 -2 -2 -2 -1 -1 -1 -1 -1 -1 -0 -0 -0 -0 -0 -0 -0 -0 -0 0 0 0 0 1 0 0 0 -0 0 0 0 0 -0 -0 -0 -0
-2 -2 -3 -3 -2 -2 -2 -3 -2 -2 -2 -2 -2 -1 -1 -1 -1 -1 -1 -0 -1 -1 -1 -1 -1 -1 -1 -1 -1 -0 -0 -0 -0 -0 -0 -0 -0 -0 -1 -1 -1 -1 -1
-3 -3 -3 -3 -3 -3 -3 -3 -3 -3 -2 -2 -2 -2 -2 -2 -1 -1 -1 -1 -1 -1 -1 -2 -2 -1 -1 -1 -1 -1 -1 -1 -1 -1 -1 -1 -1 -1 -1 -1 -1 -1 -1
-3 -3 -3 -3 -3 -3 -3 -3 -3 -3 -3 -3 -2 -2 -2 -2 -2 -2 -2 -1 -1 -1 -2 -2 -2 -1 -1 -2 -2 -1 -1 -1 -1 -1 -1 -1 -1 -1 -1 -2 -2 -2 -2
-3 -3 -3 -3 -4 -3 -3 -3 -3 -3 -3 -3 -3 -3 -2 -2 -2 -2 -2 -2 -2 -2 -2 -2 -2 -2 -2 -2 -2 -2 -2 -1 -1 -1 -2 -2 -2 -2 -2 -2 -2 -2 -2
Wind_Speed
11 9 8 8 8 8 8 8 7 8 8 7 8 8 8 8 8 8 10 11 11 11 10 8 8 8 7 7 7 6 6 4 3 2 2 3 4 5 4 5 5 5 5
10 9 8 8 8 9 8 8 8 8 9 8 8 8 8 7 7 7 9 11 11 11 10 10 8 8 7 7 7 7 5 4 4 3 3 3 4 4 5 5 5 5 4
10 9 9 9 9 9 8 8 8 8 9 8 7 6 6 5 6 7 7 9 11 11 11 11 9 8 8 8 8 8 8 6 5 5 4 3 4 2 4 6 6 5 4
8 9 9 9 9 9 7 8 7 8 8 8 9 10 9 9 8 8 7 8 10 11 11 11 10 9 8 8 8 8 7 7 6 4 4 4 3 3 3 4 5 5 5
7 8 9 9 8 7 6 6 7 8 8 9 10 10 10 8 7 7 8 8 8 9 10 10 9 9 8 8 8 8 8 7 7 5 4 4 4 4 4 4 4 4 5
7 8 8 7 7 6 5 5 6 7 8 9 9 10 11 10 9 9 8 7 6 7 9 8 8 8 8 8 8 8 9 8 8 6 5 5 4 5 4 5 4 5 4
6 6 7 6 5 5 5 5 6 7 7 8 9 9 10 11 11 10 9 8 7 6 8 8 7 7 8 8 8 8 8 8 8 7 6 6 5 4 4 5 4 4 4
6 6 5 6 5 5 4 4 6 7 7 8 8 8 9 8 8 9 8 8 7 7 8 8 8 8 8 7 8 7 8 7 7 7 7 6 5 4 4 5 4 4 4
6 6 5 5 5 5 4 4 5 6 6 7 7 7 8 8 8 8 9 7 7 7 8 8 8 7 8 7 7 6 7 7 7 7 7 6 5 4 5 5 5 5 6
7 6 6 6 5 4 4 4 5 6 5 5 5 5 7 7 7 8 8 8 8 8 8 8 8 7 7 8 7 6 6 6 6 6 6 6 5 5 5 5 5 6 6
8 6 6 6 5 5 4 3 4 3 3 4 4 5 6 6 7 7 8 8 8 9 9 8 8 8 8 7 7 7 7 7 7 7 7 7 7 5 5 5 5 5 5
8 7 6 6 5 5 5 4 3 3 2 3 3 4 4 5 6 6 6 7 7 8 8 8 8 8 8 7 7 7 7 7 8 8 7 8 6 7 6 5 6 5 6
8 7 6 6 5 5 5 5 4 4 3 2 3 3 4 5 6 6 6 6 7 7 8 8 8 8 7 7 7 7 7 7 7 7 7 7 7 7 6 6 5 5 5
8 7 7 6 6 6 5 5 5 4 3 2 2 3 3 4 5 5 6 6 7 7 7 7 7 7 7 7 7 6 6 6 6 6 6 7 7 7 7 6 6 5 5
8 7 7 7 7 7 6 6 5 5 3 2 2 3 3 3 5 5 5 6 6 6 6 6 7 6 6 6 6 6 6 6 5 5 5 5 6 6 6 6 6 6 5
8 7 7 8 8 8 7 6 6 5 4 3 3 3 2 3 4 5 5 5 6 6 6 6 6 6 5 7 8 6 6 5 5 5 4 4 5 6 7 7 7 7 7
7 8 7 7 7 8 7 7 6 5 4 4 3 3 3 3 3 3 4 5 5 5 5 5 5 6 6 7 8 7 5 5 5 5 4 4 4 5 5 6 7 8 8
8 8 8 8 8 7 7 6 5 4 4 4 4 4 3 3 2 3 3 4 4 4 5 4 5 4 5 7 7 6 5 4 5 5 5 5 5 5 5 5 5 5 5
8 8 7 7 7 7 6 5 4 4 4 4 4 4 3 3 3 3 3 3 3 3 3 4 4 4 5 6 6 5 3 3 4 4 5 5 5 6 5 4 4 4 3
7 7 7 7 6 6 5 4 4 4 4 4 4 4 4 4 4 3 3 2 2 3 2 3 3 4 4 5 6 5 3 3 3 3 4 5 5 6 6 5 5 4 3
7 7 6 6 6 6 4 4 4 4 5 4 4 4 4 4 4 3 2 2 2 1 2 2 2 3 3 5 5 4 3 3 3 3 3 3 5 6 6 6 5 5 3
7 7 6 6 6 5 4 4 5 5 4 4 4 4 4 3 2 2 2 1 1 2 2 2 2 2 2 3 4 4 3 3 3 3 3 3 4 5 6 4 4 3 2
7 6 6 6 6 6 4 5 5 5 3 3 4 4 3 3 2 1 1 1 1 2 2 2 2 2 2 2 3 3 3 3 2 2 2 3 3 4 4 4 4 3 2
7 6 6 5 6 6 5 5 5 4 3 3 3 3 2 2 1 1 1 2 2 2 2 2 2 2 2 2 2 2 1 2 1 2 3 3 3 2 2 3 3 2 2
6 6 5 6 6 6 6 6 5 4 4 3 3 2 2 2 1 1 1 2 2 3 3 3 3 3 3 3 2 2 2 2 2 2 2 2 2 2 2 1 2 2 2
6 6 6 6 6 6 6 6 5 3 3 3 2 2 2 1 1 1 1 1 2 3 3 3 3 3 3 3 3 3 3 3 3 3 3 2 2 2 2 2 1 2 2
Wind_Direction
260 257 254 251 245 241 235 232 232 230 214 204 197 198 203 204 205 205 204 204 201 198 197 197 196 196 203 207 207 206 205 209 202 214 235 236 230 227 224 221 219 216 222
263 260 257 252 246 242 236 233 232 232 218 211 204 202 202 207 207 205 207 208 206 201 200 199 199 201 204 206 207 205 207 209 203 213 223 224 219 218 223 223 221 219 214
264 265 260 254 248 243 240 233 231 234 224 213 204 198 197 199 204 206 210 212 210 205 203 203 202 204 204 207 209 210 210 210 208 215 226 232 226 222 210 220 219 218 219
264 265 262 257 252 247 246 241 234 230 223 212 202 199 204 207 209 205 207 210 212 209 207 206 205 204 207 209 210 212 214 210 211 214 232 255 266 235 222 213 219 226 233
275 273 267 261 259 255 246 239 235 228 220 213 205 205 211 212 208 204 205 208 210 209 208 206 205 206 209 211 210 211 212 213 215 216 217 234 246 247 240 239 231 236 236
286 279 276 270 264 260 251 241 234 229 218 210 207 209 211 208 205 205 203 205 206 208 209 207 207 208 209 211 212 211 213 214 217 219 218 221 225 222 231 245 246 245 242
303 298 295 286 276 266 256 244 235 234 221 212 211 212 213 210 208 208 206 204 203 207 209 207 210 210 213 213 211 210 214 214 214 218 224 228 234 234 237 246 253 258 261
312 308 303 295 286 274 264 256 244 237 224 218 216 215 214 212 211 212 211 211 207 208 207 206 208 210 211 212 211 211 213 212 215 219 222 225 228 226 232 240 243 252 254
332 327 320 314 301 287 271 260 257 247 225 219 218 217 214 211 209 212 214 215 211 205 204 207 207 208 209 210 210 212 211 211 213 216 220 226 227 226 231 235 236 245 254
335 335 334 330 321 308 293 279 264 249 232 221 217 218 217 214 212 212 212 215 211 205 202 206 206 206 207 207 207 209 208 209 213 212 215 224 225 226 224 227 233 243 249
338 337 340 340 342 332 320 296 279 269 243 231 224 219 216 213 213 213 213 210 209 207 205 205 206 206 206 202 202 206 205 208 213 215 217 223 224 225 223 226 229 236 240
335 336 341 347 347 346 340 333 325 307 271 246 238 230 224 214 215 215 213 208 206 206 205 205 205 205 204 202 202 205 208 208 213 218 219 223 223 226 223 223 227 231 236
337 340 347 351 348 346 345 341 336 333 315 276 247 240 231 220 215 214 211 210 207 205 203 203 204 204 203 203 206 207 211 212 216 217 219 223 221 223 221 221 226 227 231
338 341 347 351 350 347 348 345 337 333 326 308 268 248 238 226 216 212 209 208 206 204 202 203 205 205 205 205 205 204 210 215 219 221 221 221 221 221 217 222 227 224 225
338 340 344 343 346 346 345 344 336 335 328 316 302 271 251 236 221 214 210 208 208 206 201 201 204 205 204 206 204 204 208 209 214 223 224 223 223 224 221 222 223 220 222
328 334 339 340 340 339 337 336 334 333 331 328 318 311 293 258 231 218 214 208 207 204 202 203 204 207 208 205 203 204 207 208 210 216 223 222 220 222 220 224 230 230 227
321 327 330 330 329 329 331 329 326 329 339 337 325 311 297 279 259 239 224 213 209 203 203 203 205 211 209 202 201 199 205 209 211 213 216 221 223 228 225 221 225 231 239
315 320 322 323 322 323 324 324 324 332 339 333 326 316 308 287 269 252 240 229 216 207 204 203 206 214 212 203 197 194 205 209 214 218 220 222 227 228 226 222 227 233 240
311 312 315 314 316 319 320 323 327 333 332 326 319 314 306 294 273 258 250 244 228 220 207 206 207 213 215 205 194 193 201 207 215 221 224 225 231 229 222 220 225 236 249
315 315 316 317 317 317 317 319 321 319 315 310 309 309 302 290 272 261 262 256 236 229 207 211 215 213 214 204 198 197 198 204 216 222 224 226 229 223 214 221 219 224 237
317 317 318 318 315 314 316 317 314 303 302 303 304 301 296 283 269 262 260 248 235 219 215 216 221 217 214 205 203 213 206 206 213 221 228 229 224 224 219 224 226 223 230
322 325 324 324 325 325 322 315 308 304 300 298 296 293 294 287 272 254 251 240 210 200 212 211 215 225 214 211 212 225 227 220 216 225 232 229 224 219 212 217 208 194 195
323 327 323 324 327 328 321 310 308 309 298 292 290 287 290 285 270 247 237 226 208 206 213 210 218 230 234 227 227 233 222 225 233 232 230 228 214 197 199 192 185 180 188
321 323 325 325 323 324 320 311 307 303 292 285 290 290 290 284 274 248 227 219 215 213 215 216 220 228 230 228 226 225 211 204 216 211 198 193 184 186 173 171 187 198 198
316 319 321 321 322 323 321 317 306 296 292 295 297 294 287 274 270 265 248 230 229 226 226 223 221 221 227 232 240 234 224 221 204 179 170 170 171 173 172 182 197 191 184
315 318 319 320 322 325 325 328 320 302 295 299 302 297 289 280 278 282 285 268 245 253 246 236 234 242 247 239 236 238 228 209 184 167 167 178 188 188 179 173 179 180 187
Height
1466 1466 1466 1466 1467 1467 1468 1469 1470 1471 1473 1474 1476 1479 1482 1484 1486 1488 1490 1492 1494 1496 1498 1500 1502 1503 1505 1506 1508 1509 1510 1511 1512 1513 1513 1513 1514 1514 1514 1515 1515 1515 1516
1461 1461 1461 1461 1461 1462 1462 1463 1465 1466 1468 1469 1471 1474 1477 1479 1481 1484 1486 1488 1490 1492 1494 1496 1497 1499 1501 1502 1504 1505 1506 1507 1509 1510 1510 1511 1511 1509 1510 1510 1511 1511 1511
1456 1456 1456 1456 1457 1457 1457 1458 1460 1461 1463 1464 1467 1470 1472 1474 1476 1478 1480 1483 1485 1487 1489 1491 1493 1495 1496 1498 1499 1501 1502 1503 1505 1506 1507 1508 1507 1506 1506 1506 1507 1507 1507
1452 1451 1451 1452 1452 1452 1452 1453 1454 1456 1457 1459 1461 1463 1465 1467 1470 1473 1475 1478 1480 1482 1484 1486 1488 1490 1492 1493 1495 1496 1498 1499 1500 1501 1502 1504 1503 1504 1502 1502 1502 1503 1503
1448 1447 1447 1447 1447 1448 1448 1448 1450 1451 1452 1454 1455 1458 1461 1463 1466 1468 1471 1473 1475 1477 1479 1481 1483 1485 1487 1489 1490 1492 1493 1494 1496 1497 1498 1498 1499 1499 1499 1498 1498 1499 1499
1445 1444 1443 1443 1443 1443 1443 1443 1445 1446 1447 1449 1451 1453 1456 1458 1460 1463 1465 1468 1470 1472 1474 1476 1478 1480 1482 1484 1485 1487 1488 1489 1491 1492 1493 1494 1494 1495 1495 1494 1493 1493 1494
1442 1441 1440 1439 1439 1439 1439 1439 1440 1441 1442 1444 1446 1448 1450 1453 1455 1458 1460 1462 1464 1466 1469 1471 1473 1475 1477 1479 1481 1482 1483 1484 1486 1487 1488 1489 1490 1490 1491 1490 1489 1489 1488
1440 1439 1437 1436 1435 1435 1435 1435 1436 1437 1438 1440 1441 1443 1446 1448 1450 1453 1455 1457 1459 1461 1464 1466 1468 1470 1472 1473 1475 1477 1478 1480 1481 1482 1483 1484 1485 1486 1486 1486 1486 1485 1484
1438 1437 1435 1433 1432 1432 1431 1432 1432 1433 1434 1435 1437 1439 1441 1443 1445 1447 1450 1452 1454 1457 1459 1461 1463 1465 1467 1468 1470 1471 1473 1474 1476 1477 1478 1479 1480 1481 1482 1482 1482 1483 1480
1437 1435 1433 1431 1430 1429 1429 1429 1429 1430 1430 1431 1433 1435 1437 1439 1441 1443 1445 1447 1449 1451 1453 1456 1458 1460 1461 1463 1465 1466 1468 1469 1470 1472 1473 1474 1475 1476 1476 1477 1477 1477 1477
1436 1434 1432 1430 1428 1427 1427 1427 1426 1426 1427 1428 1429 1431 1432 1434 1436 1438 1440 1442 1444 1446 1448 1450 1452 1454 1456 1458 1459 1461 1463 1464 1465 1466 1468 1469 1470 1470 1471 1472 1472 1472 1472
1436 1434 1432 1429 1428 1426 1425 1424 1424 1424 1424 1425 1426 1427 1428 1430 1431 1433 1435 1437 1439 1442 1444 1446 1447 1449 1451 1452 1454 1455 1457 1459 1460 1461 1462 1463 1464 1465 1466 1466 1467 1467 1467
1436 1433 1431 1429 1428 1426 1424 1423 1422 1422 1422 1422 1423 1424 1424 1425 1427 1429 1430 1433 1435 1437 1439 1441 1443 1444 1446 1448 1449 1451 1452 1453 1455 1456 1457 1458 1459 1459 1460 1461 1462 1462 1462
1436 1433 1431 1429 1427 1425 1423 1422 1421 1420 1420 1420 1420 1420 1421 1422 1423 1425 1427 1429 1431 1433 1435 1437 1438 1440 1441 1443 1444 1446 1447 1448 1449 1450 1451 1452 1453 1454 1455 1456 1457 1457 1457
1435 1433 1431 1428 1426 1424 1422 1421 1420 1419 1418 1418 1417 1417 1418 1419 1420 1422 1423 1425 1427 1429 1430 1432 1434 1436 1437 1438 1440 1441 1442 1443 1444 1445 1446 1447 1448 1449 1450 1451 1452 1452 1452
1435 1433 1430 1428 1426 1424 1422 1420 1418 1417 1416 1415 1415 1415 1415 1416 1417 1419 1420 1421 1423 1424 1426 1428 1429 1431 1432 1434 1436 1437 1438 1439 1440 1440 1442 1442 1443 1444 1445 1446 1446 1447 1447
1434 1432 1430 1427 1425 1423 1421 1418 1416 1415 1414 1413 1413 1413 1413 1413 1414 1416 1417 1418 1419 1421 1422 1424 1425 1427 1428 1430 1431 1433 1434 1435 1435 1436 1437 1438 1438 1439 1440 1440 1441 1442 1442
1433 1430 1428 1426 1423 1421 1419 1417 1415 1414 1413 1412 1411 1411 1411 1411 1411 1412 1413 1415 1416 1417 1419 1420 1422 1423 1424 1426 1427 1428 1429 1430 1431 1432 1433 1434 1434 1435 1436 1436 1436 1436 1436
1431 1428 1426 1423 1421 1419 1417 1415 1413 1412 1411 1410 1410 1409 1409 1408 1409 1410 1410 1412 1413 1414 1415 1417 1418 1419 1421 1422 1423 1424 1425 1426 1427 1428 1429 1429 1430 1430 1431 1432 1431 1431 1431
1429 1426 1424 1421 1419 1417 1415 1413 1411 1411 1410 1409 1408 1408 1407 1407 1407 1407 1408 1409 1410 1411 1412 1413 1415 1416 1417 1419 1419 1420 1421 1422 1422 1424 1424 1425 1425 1426 1427 1427 1427 1426 1426
1427 1424 1422 1419 1417 1414 1413 1411 1409 1409 1408 1407 1407 1406 1406 1405 1405 1406 1406 1407 1407 1408 1408 1410 1411 1413 1414 1415 1416 1417 1417 1418 1418 1419 1420 1421 1421 1422 1423 1423 1423 1423 1423
1424 1422 1419 1416 1414 1412 1411 1409 1407 1407 1406 1405 1405 1404 1404 1403 1403 1403 1404 1404 1405 1406 1407 1408 1409 1410 1411 1412 1412 1414 1415 1415 1415 1416 1416 1417 1418 1418 1418 1419 1419 1419 1419
1422 1420 1417 1415 1412 1411 1409 1407 1405 1405 1404 1403 1403 1402 1402 1401 1401 1401 1402 1402 1403 1404 1404 1405 1406 1407 1408 1409 1410 1411 1411 1412 1413 1413 1413 1414 1414 1415 1415 1415 1416 1416 1416
1420 1418 1416 1413 1411 1409 1407 1405 1404 1403 1402 1401 1401 1400 1399 1399 1399 1399 1400 1400 1400 1401 1402 1402 1403 1404 1405 1406 1407 1408 1408 1409 1410 1410 1410 1411 1411 1411 1412 1412 1412 1413 1413
1419 1417 1414 1412 1410 1407 1405 1403 1401 1400 1400 1399 1398 1398 1398 1398 1397 1397 1398 1398 1399 1399 1399 1400 1400 1401 1401 1403 1404 1405 1405 1406 1406 1407 1407 1407 1408 1408 1408 1409 1409 1409 1410
1417 1415 1412 1410 1408 1406 1403 1401 1400 1399 1398 1397 1396 1396 1396 1396 1396 1396 1396 1396 1397 1397 1397 1397 1398 1398 1399 1400 1401 1402 1403 1404 1404 1404 1404 1405 1405 1406 1406 1406 1406 1406 1407